| time (UTC) | temp C | wind direction | speed KPH | gust KPH | rain 1hr cm | rain 24hr cm | rain mn cm | humidity % | barometer mb |
| 20260503210615 | 26 | 209 | 12.9 | 25.7 | 0.00 | 0.00 | 0.00 | 26 | 1013.8 |
| 20260503210124 | 26 | 212 | 9.7 | 25.7 | 0.00 | 0.00 | 0.00 | 25 | 1014.0 |
| 20260503205226 | 26 | 233 | 11.3 | 37.0 | 0.00 | 0.00 | 0.00 | 25 | 1014.0 |
| 20260503204725 | 26 | 190 | 16.1 | 37.0 | 0.00 | 0.00 | 0.00 | 25 | 1014.3 |
| 20260503204226 | 25 | 237 | 11.3 | 30.6 | 0.00 | 0.00 | 0.00 | 25 | 1014.4 |
| 20260503203729 | 26 | 213 | 16.1 | 30.6 | 0.00 | 0.00 | 0.00 | 24 | 1014.5 |
| 20260503203547 | 26 | 238 | 14.5 | 32.2 | 0.00 | 0.00 | 0.00 | 25 | 1014.5 |
| 20260503202728 | 25 | 154 | 19.3 | 32.2 | 0.00 | 0.00 | 0.00 | 25 | 1014.7 |
| 20260503202228 | 25 | 228 | 12.9 | 25.7 | 0.00 | 0.00 | 0.00 | 27 | 1014.8 |
| 20260503201727 | 25 | 190 | 11.3 | 33.8 | 0.00 | 0.00 | 0.00 | 27 | 1015.1 |
| 20260503201228 | 25 | 261 | 11.3 | 33.8 | 0.00 | 0.00 | 0.00 | 29 | 1015.2 |
| 20260503200726 | 25 | 197 | 14.5 | 29.0 | 0.00 | 0.00 | 0.00 | 26 | 1015.2 |
| 20260503200227 | 25 | 252 | 11.3 | 29.0 | 0.00 | 0.00 | 0.00 | 28 | 1015.3 |
| 20260503195726 | 25 | 230 | 12.9 | 29.0 | 0.00 | 0.00 | 0.00 | 26 | 1015.5 |
| 20260503195225 | 26 | 219 | 16.1 | 29.0 | 0.00 | 0.00 | 0.00 | 28 | 1015.5 |
| 20260503194727 | 25 | 234 | 14.5 | 25.7 | 0.00 | 0.00 | 0.00 | 29 | 1015.4 |
| 20260503194227 | 25 | 206 | 14.5 | 25.7 | 0.00 | 0.00 | 0.00 | 28 | 1015.6 |
| 20260503193727 | 25 | 265 | 14.5 | 25.7 | 0.00 | 0.00 | 0.00 | 27 | 1015.6 |
| 20260503193226 | 25 | 188 | 8.0 | 25.7 | 0.00 | 0.00 | 0.00 | 28 | 1015.6 |
| 20260503193125 | 25 | 250 | 16.1 | 25.7 | 0.00 | 0.00 | 0.00 | 29 | 1015.8 |
| 20260503192226 | 25 | 244 | 9.7 | 38.6 | 0.00 | 0.00 | 0.00 | 29 | 1015.8 |
| 20260503191727 | 25 | 213 | 16.1 | 38.6 | 0.00 | 0.00 | 0.00 | 27 | 1015.8 |
| 20260503191227 | 25 | 227 | 16.1 | 35.4 | 0.00 | 0.00 | 0.00 | 29 | 1015.9 |
| 20260503191134 | 25 | 247 | 6.4 | 25.7 | 0.00 | 0.00 | 0.00 | 29 | 1016.1 |
| 20260503190226 | 25 | 165 | 14.5 | 33.8 | 0.00 | 0.00 | 0.00 | 27 | 1016.3 |
| 20260503185724 | 25 | 219 | 17.7 | 33.8 | 0.00 | 0.00 | 0.00 | 27 | 1016.3 |
| 20260503185227 | 25 | 203 | 11.3 | 25.7 | 0.00 | 0.00 | 0.00 | 28 | 1016.3 |
| 20260503184728 | 25 | 199 | 9.7 | 25.7 | 0.00 | 0.00 | 0.00 | 29 | 1016.5 |
| 20260503184226 | 25 | 233 | 12.9 | 25.7 | 0.00 | 0.00 | 0.00 | 29 | 1016.5 |
| 20260503183725 | 25 | 283 | 8.0 | 20.9 | 0.00 | 0.00 | 0.00 | 27 | 1016.6 |
| 20260503183225 | 24 | 157 | 11.3 | 20.9 | 0.00 | 0.00 | 0.00 | 27 | 1016.7 |
| 20260503182726 | 24 | 269 | 8.0 | 27.4 | 0.00 | 0.00 | 0.00 | 27 | 1016.7 |
| 20260503182226 | 24 | 216 | 9.7 | 27.4 | 0.00 | 0.00 | 0.00 | 28 | 1017.2 |
| 20260503181725 | 23 | 257 | 9.7 | 19.3 | 0.00 | 0.00 | 0.00 | 29 | 1016.9 |
| 20260503181627 | 24 | 179 | 12.9 | 24.1 | 0.00 | 0.00 | 0.00 | 30 | 1017.2 |
| 20260503180726 | 23 | 179 | 12.9 | 25.7 | 0.00 | 0.00 | 0.00 | 29 | 1017.4 |
| 20260503180226 | 23 | 228 | 12.9 | 25.7 | 0.00 | 0.00 | 0.00 | 29 | 1017.5 |
| 20260503180141 | 23 | 193 | 12.9 | 22.5 | 0.00 | 0.00 | 0.00 | 30 | 1017.5 |
| 20260503175226 | 23 | 238 | 9.7 | 24.1 | 0.00 | 0.00 | 0.00 | 32 | 1017.5 |
| 20260503174725 | 23 | 157 | 11.3 | 32.2 | 0.00 | 0.00 | 0.00 | 32 | 1017.4 |
| 20260503174227 | 23 | 278 | 19.3 | 32.2 | 0.00 | 0.00 | 0.00 | 31 | 1017.7 |
| 20260503173726 | 23 | 164 | 11.3 | 35.4 | 0.00 | 0.00 | 0.00 | 32 | 1017.7 |
| 20260503173225 | 23 | 237 | 16.1 | 35.4 | 0.00 | 0.00 | 0.00 | 33 | 1017.8 |
| 20260503172726 | 23 | 206 | 11.3 | 30.6 | 0.00 | 0.00 | 0.00 | 33 | 1017.8 |
| 20260503172227 | 22 | 162 | 14.5 | 32.2 | 0.00 | 0.00 | 0.00 | 33 | 1018.1 |
| 20260503172127 | 22 | 261 | 11.3 | 32.2 | 0.00 | 0.00 | 0.00 | 34 | 1018.0 |
| 20260503171225 | 22 | 224 | 9.7 | 24.1 | 0.00 | 0.00 | 0.00 | 33 | 1018.2 |
| 20260503171122 | 22 | 185 | 11.3 | 24.1 | 0.00 | 0.00 | 0.00 | 37 | 1018.4 |
| 20260503170633 | 22 | 244 | 12.9 | 32.2 | 0.00 | 0.00 | 0.00 | 36 | 1018.5 |
| 20260503150726 | 18 | 265 | 14.5 | 25.7 | 0.00 | 0.00 | 0.00 | 49 | 1019.7 |
| 20260503150225 | 18 | 272 | 11.3 | 33.8 | 0.00 | 0.00 | 0.00 | 49 | 1019.8 |
| 20260503150129 | 18 | 219 | 20.9 | 33.8 | 0.00 | 0.00 | 0.00 | 50 | 1019.8 |
| 20260503140226 | 15 | 288 | 9.7 | 20.9 | 0.00 | 0.00 | 0.00 | 57 | 1020.2 |
| 20260503131226 | 11 | 331 | 9.7 | 19.3 | 0.00 | 0.00 | 0.00 | 67 | 1019.7 |
| 20260503130725 | 11 | 245 | 9.7 | 19.3 | 0.00 | 0.00 | 0.00 | 68 | 1019.8 |
| 20260503130228 | 11 | 245 | 6.4 | 20.9 | 0.00 | 0.00 | 0.00 | 69 | 1019.7 |
| 20260503110225 | 10 | 276 | 8.0 | 17.7 | 0.00 | 0.00 | 0.00 | 70 | 1019.2 |
| 20260503100123 | 10 | 224 | 6.4 | 20.9 | 0.00 | 0.00 | 0.00 | 67 | 1019.4 |
| 20260503090225 | 11 | 298 | 8.0 | 20.9 | 0.00 | 0.00 | 0.00 | 61 | 1019.3 |
| 20260503081227 | 11 | 268 | 8.0 | 19.3 | 0.00 | 0.00 | 0.00 | 57 | 1019.3 |
| 20260503081125 | 11 | 252 | 9.7 | 20.9 | 0.00 | 0.00 | 0.00 | 56 | 1019.3 |
| 20260503080225 | 11 | 286 | 8.0 | 20.9 | 0.00 | 0.00 | 0.00 | 55 | 1019.3 |
| 20260503072725 | 12 | 237 | 9.7 | 20.9 | 0.00 | 0.00 | 0.00 | 52 | 1019.5 |
| 20260503072226 | 12 | 241 | 8.0 | 19.3 | 0.00 | 0.00 | 0.00 | 51 | 1019.7 |
| 20260503071725 | 12 | 223 | 6.4 | 16.1 | 0.00 | 0.00 | 0.00 | 51 | 1019.6 |
| 20260503071229 | 12 | 226 | 6.4 | 17.7 | 0.00 | 0.00 | 0.00 | 51 | 1019.6 |
| 20260503071128 | 12 | 237 | 8.0 | 17.7 | 0.00 | 0.00 | 0.00 | 50 | 1019.7 |
| 20260503070625 | 12 | 281 | 6.4 | 19.3 | 0.00 | 0.00 | 0.00 | 50 | 1019.7 |
| 20260503060225 | 13 | 248 | 4.8 | 17.7 | 0.00 | 0.00 | 0.00 | 43 | 1019.7 |
| 20260503060111 | 13 | 261 | 6.4 | 14.5 | 0.00 | 0.00 | 0.00 | 42 | 1019.8 |
| 20260503054724 | 13 | 265 | 4.8 | 9.7 | 0.00 | 0.00 | 0.00 | 41 | 1019.7 |
| 20260503054224 | 13 | 243 | 6.4 | 11.3 | 0.00 | 0.00 | 0.00 | 41 | 1019.7 |
| 20260503054118 | 14 | 254 | 4.8 | 17.7 | 0.00 | 0.00 | 0.00 | 41 | 1019.6 |
| 20260503053226 | 14 | 250 | 8.0 | 17.7 | 0.00 | 0.00 | 0.00 | 40 | 1019.6 |
| 20260503052725 | 14 | 247 | 6.4 | 20.9 | 0.00 | 0.00 | 0.00 | 39 | 1019.7 |
| 20260503052225 | 15 | 274 | 6.4 | 20.9 | 0.00 | 0.00 | 0.00 | 39 | 1019.6 |
| 20260503052122 | 15 | 269 | 4.8 | 14.5 | 0.00 | 0.00 | 0.00 | 39 | 1019.7 |
| 20260503051224 | 15 | 240 | 6.4 | 16.1 | 0.00 | 0.00 | 0.00 | 39 | 1019.7 |
| 20260503050725 | 15 | 251 | 6.4 | 17.7 | 0.00 | 0.00 | 0.00 | 40 | 1019.7 |
| 20260503050622 | 14 | 234 | 8.0 | 17.7 | 0.00 | 0.00 | 0.00 | 39 | 1019.7 |
| 20260503045726 | 14 | 241 | 3.2 | 8.0 | 0.00 | 0.00 | 0.00 | 39 | 1019.6 |
| 20260503045224 | 15 | 240 | 4.8 | 8.0 | 0.00 | 0.00 | 0.00 | 38 | 1019.6 |
| 20260503044726 | 15 | 245 | 4.8 | 9.7 | 0.00 | 0.00 | 0.00 | 38 | 1019.7 |
| 20260503044224 | 15 | 193 | 6.4 | 9.7 | 0.00 | 0.00 | 0.00 | 37 | 1019.7 |
| 20260503043724 | 15 | 224 | 3.2 | 8.0 | 0.00 | 0.00 | 0.00 | 37 | 1019.6 |
| 20260503043224 | 15 | 230 | 4.8 | 8.0 | 0.00 | 0.00 | 0.00 | 37 | 1019.6 |
| 20260503042727 | 15 | 255 | 4.8 | 8.0 | 0.00 | 0.00 | 0.00 | 38 | 1019.6 |
| 20260503042224 | 15 | 237 | 4.8 | 9.7 | 0.00 | 0.00 | 0.00 | 36 | 1019.5 |
| 20260503041725 | 15 | 248 | 3.2 | 9.7 | 0.00 | 0.00 | 0.00 | 38 | 1019.6 |
| 20260503041224 | 15 | 219 | 1.6 | 9.7 | 0.00 | 0.00 | 0.00 | 37 | 1019.6 |
| 20260503040723 | 15 | 219 | 1.6 | 9.7 | 0.00 | 0.00 | 0.00 | 37 | 1019.7 |
| 20260503040619 | 15 | 233 | 4.8 | 9.7 | 0.00 | 0.00 | 0.00 | 36 | 1019.6 |
| 20260503035725 | 15 | 230 | 3.2 | 9.7 | 0.00 | 0.00 | 0.00 | 36 | 1019.7 |
| 20260503035224 | 15 | 214 | 3.2 | 9.7 | 0.00 | 0.00 | 0.00 | 36 | 1019.6 |
| 20260503035120 | 15 | 227 | 1.6 | 9.7 | 0.00 | 0.00 | 0.00 | 37 | 1019.8 |
| 20260503034225 | 15 | 235 | 4.8 | 6.4 | 0.00 | 0.00 | 0.00 | 40 | 1019.7 |
| 20260503033725 | 14 | 233 | 0.0 | 0.0 | 0.00 | 0.00 | 0.00 | 40 | 1019.7 |
| 20260503033224 | 14 | 233 | 0.0 | 0.0 | 0.00 | 0.00 | 0.00 | 41 | 1019.7 |
| 20260503032725 | 15 | 250 | 0.0 | 3.2 | 0.00 | 0.00 | 0.00 | 40 | 1019.5 |
| 20260503032224 | 14 | 237 | 1.6 | 4.8 | 0.00 | 0.00 | 0.00 | 43 | 1019.6 |
| 20260503031724 | 14 | 224 | 0.0 | 4.8 | 0.00 | 0.00 | 0.00 | 49 | 1019.5 |
| 20260503031226 | 14 | 223 | 0.0 | 0.0 | 0.00 | 0.00 | 0.00 | 42 | 1019.4 |
| 20260503030727 | 14 | 206 | 0.0 | 0.0 | 0.00 | 0.00 | 0.00 | 40 | 1019.4 |
| 20260503030224 | 14 | 202 | 0.0 | 0.0 | 0.00 | 0.00 | 0.00 | 39 | 1019.3 |
| 20260503025724 | 15 | 202 | 0.0 | 0.0 | 0.00 | 0.00 | 0.00 | 38 | 1019.4 |
| 20260503025620 | 15 | 197 | 0.0 | 0.0 | 0.00 | 0.00 | 0.00 | 37 | 1019.3 |
| 20260503024724 | 15 | 224 | 0.0 | 0.0 | 0.00 | 0.00 | 0.00 | 37 | 1019.2 |
| 20260503024225 | 15 | 227 | 0.0 | 0.0 | 0.00 | 0.00 | 0.00 | 39 | 1019.2 |
| 20260503024140 | 15 | 227 | 0.0 | 0.0 | 0.00 | 0.00 | 0.00 | 41 | 1019.1 |
| 20260503023639 | 15 | 227 | 0.0 | 0.0 | 0.00 | 0.00 | 0.00 | 43 | 1019.1 |
| 20260503022724 | 15 | 227 | 0.0 | 0.0 | 0.00 | 0.00 | 0.00 | 44 | 1019.1 |
| 20260503022626 | 15 | 233 | 0.0 | 0.0 | 0.00 | 0.00 | 0.00 | 35 | 1019.1 |
| 20260503021727 | 16 | 233 | 0.0 | 0.0 | 0.00 | 0.00 | 0.00 | 35 | 1019.1 |
| 20260503021226 | 16 | 235 | 0.0 | 3.2 | 0.00 | 0.00 | 0.00 | 34 | 1019.1 |
| 20260503020725 | 16 | 230 | 0.0 | 3.2 | 0.00 | 0.00 | 0.00 | 33 | 1019.0 |
| 20260503020225 | 16 | 217 | 0.0 | 3.2 | 0.00 | 0.00 | 0.00 | 32 | 1019.0 |
| 20260503015724 | 17 | 217 | 0.0 | 4.8 | 0.00 | 0.00 | 0.00 | 32 | 1018.8 |
| 20260503015226 | 17 | 227 | 1.6 | 4.8 | 0.00 | 0.00 | 0.00 | 31 | 1018.8 |
| 20260503014724 | 16 | 212 | 1.6 | 4.8 | 0.00 | 0.00 | 0.00 | 40 | 1018.7 |
| 20260503014224 | 17 | 228 | 0.0 | 4.8 | 0.00 | 0.00 | 0.00 | 39 | 1018.7 |
| 20260503014122 | 18 | 209 | 1.6 | 6.4 | 0.00 | 0.00 | 0.00 | 30 | 1018.5 |
| 20260503013919 | 18 | 230 | 0.0 | 4.8 | 0.00 | 0.00 | 0.00 | 30 | 1018.6 |
| 20260503012726 | 18 | 180 | 1.6 | 6.4 | 0.00 | 0.00 | 0.00 | 29 | 1018.5 |
| 20260503012225 | 18 | 116 | 1.6 | 4.8 | 0.00 | 0.00 | 0.00 | 33 | 1018.5 |
| 20260503011727 | 19 | 135 | 1.6 | 11.3 | 0.00 | 0.00 | 0.00 | 27 | 1018.4 |
| 20260503011223 | 20 | 127 | 3.2 | 11.3 | 0.00 | 0.00 | 0.00 | 25 | 1018.5 |
| 20260503010725 | 20 | 127 | 3.2 | 9.7 | 0.00 | 0.00 | 0.00 | 26 | 1018.5 |
| 20260503010224 | 20 | 96 | 3.2 | 8.0 | 0.00 | 0.00 | 0.00 | 25 | 1018.3 |
| 20260503005726 | 20 | 114 | 6.4 | 8.0 | 0.00 | 0.00 | 0.00 | 26 | 1018.4 |
| 20260503005224 | 20 | 124 | 3.2 | 9.7 | 0.00 | 0.00 | 0.00 | 27 | 1018.4 |
| 20260503004724 | 20 | 125 | 3.2 | 9.7 | 0.00 | 0.00 | 0.00 | 26 | 1018.4 |
| 20260503004224 | 20 | 123 | 4.8 | 11.3 | 0.00 | 0.00 | 0.00 | 25 | 1018.4 |
| 20260503003725 | 20 | 221 | 4.8 | 14.5 | 0.00 | 0.00 | 0.00 | 26 | 1018.4 |
| 20260503003623 | 20 | 141 | 6.4 | 14.5 | 0.00 | 0.00 | 0.00 | 29 | 1018.4 |
| 20260503002726 | 20 | 206 | 1.6 | 6.4 | 0.00 | 0.00 | 0.00 | 26 | 1018.4 |
| 20260503002225 | 20 | 159 | 0.0 | 6.4 | 0.00 | 0.00 | 0.00 | 26 | 1018.5 |
| 20260503001724 | 20 | 190 | 1.6 | 17.7 | 0.00 | 0.00 | 0.00 | 29 | 1018.5 |
| 20260503001224 | 20 | 226 | 8.0 | 17.7 | 0.00 | 0.00 | 0.00 | 27 | 1018.4 |
| 20260503000725 | 20 | 221 | 3.2 | 11.3 | 0.00 | 0.00 | 0.00 | 29 | 1018.4 |
| 20260503000229 | 20 | 182 | 3.2 | 9.7 | 0.00 | 0.00 | 0.00 | 30 | 1018.4 |
| 20260502235727 | 20 | 220 | 3.2 | 11.3 | 0.00 | 0.00 | 0.00 | 30 | 1018.5 |
| 20260502235627 | 19 | 128 | 4.8 | 11.3 | 0.00 | 0.00 | 0.00 | 28 | 1018.5 |
| 20260502234724 | 19 | 166 | 3.2 | 6.4 | 0.00 | 0.00 | 0.00 | 31 | 1018.5 |
| 20260502234224 | 19 | 185 | 3.2 | 6.4 | 0.00 | 0.00 | 0.00 | 37 | 1018.5 |
| 20260502233724 | 19 | 192 | 1.6 | 6.4 | 0.00 | 0.00 | 0.00 | 33 | 1018.6 |
| 20260502233249 | 19 | 290 | 3.2 | 6.4 | 0.00 | 0.00 | 0.00 | 34 | 1018.5 |
| 20260502232904 | 20 | 348 | 3.2 | 8.0 | 0.00 | 0.00 | 0.00 | 34 | 1018.6 |
| 20260502232817 | 19 | 106 | 1.6 | 6.4 | 0.00 | 0.00 | 0.00 | 34 | 1018.6 |
| 20260502231224 | 20 | 221 | 3.2 | 14.5 | 0.00 | 0.00 | 0.00 | 28 | 1018.6 |
| 20260502231113 | 20 | 219 | 6.4 | 11.3 | 0.00 | 0.00 | 0.00 | 31 | 1018.6 |
| 20260502230226 | 20 | 238 | 6.4 | 11.3 | 0.00 | 0.00 | 0.00 | 31 | 1018.6 |
| 20260502225724 | 20 | 199 | 4.8 | 16.1 | 0.00 | 0.00 | 0.00 | 33 | 1018.6 |
| 20260502225226 | 20 | 235 | 4.8 | 16.1 | 0.00 | 0.00 | 0.00 | 35 | 1018.6 |
| 20260502224724 | 20 | 250 | 3.2 | 16.1 | 0.00 | 0.00 | 0.00 | 32 | 1018.6 |
| 20260502224616 | 21 | 238 | 6.4 | 17.7 | 0.00 | 0.00 | 0.00 | 31 | 1018.6 |
| 20260502224028 | 22 | 226 | 6.4 | 16.1 | 0.00 | 0.03 | 0.00 | 24 | 1018.7 |
| 20260502223858 | 22 | 213 | 8.0 | 17.7 | 0.00 | 0.00 | 0.00 | 26 | 1018.8 |
| 20260502222724 | 23 | 161 | 8.0 | 16.1 | 0.00 | 0.03 | 0.00 | 23 | 1018.7 |
| 20260502222224 | 22 | 206 | 3.2 | 20.9 | 0.00 | 0.03 | 0.00 | 23 | 1018.7 |
| 20260502222113 | 22 | 152 | 8.0 | 20.9 | 0.00 | 0.03 | 0.00 | 22 | 1018.8 |
| 20260502221225 | 22 | 227 | 4.8 | 14.5 | 0.00 | 0.03 | 0.00 | 25 | 1019.0 |
| 20260502220724 | 22 | 248 | 3.2 | 14.5 | 0.00 | 0.03 | 0.00 | 25 | 1019.1 |
| 20260502220224 | 22 | 145 | 4.8 | 14.5 | 0.00 | 0.03 | 0.00 | 23 | 1019.2 |
| 20260502215723 | 22 | 142 | 3.2 | 8.0 | 0.00 | 0.03 | 0.00 | 21 | 1019.1 |
| 20260502215226 | 23 | 333 | 3.2 | 9.7 | 0.00 | 0.03 | 0.00 | 24 | 1019.2 |
| 20260502214724 | 22 | 17 | 6.4 | 16.1 | 0.00 | 0.03 | 0.00 | 25 | 1019.2 |
| 20260502214609 | 22 | 347 | 8.0 | 16.1 | 0.00 | 0.03 | 0.00 | 26 | 1019.3 |
| 20260502213724 | 22 | 41 | 1.6 | 19.3 | 0.00 | 0.03 | 0.00 | 24 | 1019.4 |
| 20260502213224 | 22 | 97 | 8.0 | 19.3 | 0.00 | 0.03 | 0.00 | 25 | 1019.4 |
| 20260502212724 | 22 | 226 | 6.4 | 17.7 | 0.00 | 0.03 | 0.00 | 24 | 1019.5 |
| 20260502212617 | 22 | 213 | 4.8 | 11.3 | 0.00 | 0.03 | 0.00 | 22 | 1019.6 |
| 20260502211725 | 22 | 323 | 0.0 | 9.7 | 0.00 | 0.03 | 0.00 | 25 | 1019.6 |
| 20260502211223 | 22 | 268 | 4.8 | 9.7 | 0.00 | 0.03 | 0.00 | 22 | 1019.8 |
| 20260502211107 | 22 | 134 | 4.8 | 9.7 | 0.00 | 0.03 | 0.00 | 21 | 1020.0 |